Погода в Таре

Погода в Таре : погода сейчас, прогноз погоды и архив. Всё, что Вы хотите узнать о погоде в Таре!

Хотите узнать прогноз погоды в Таре? Тогда Вам сюда: Погода в Таре

Поиск расширенной информации на нашем сайте:

Другие новости

Новости СМИ2

Главная страница сайта

Новости сайта

03.07.2017

Напоминаем, что на нашем специализированном сайте Метеоцентр.Азия вы можете получить высокодетализированные автоматические прогнозы погоды по пунктам России, СНГ и мира в авиационном формате (включающие направление и скорость ветра, видимость, явления погоды, количество и форму облачности, нижнюю и верхнюю границу облачности).

Рекомендуем: планировка таунхаусов

Погода в Таре - сегодня

Время (UTC), дата Ветер
(°,м/с) 
Видим.   Явления Облачность Т
(°С)
Тd
(°С)
f(%) Тe
(°С)
Pmin
(гПа)
dP
(гПа)
Po
(мм)
O2
(г/м3)
Тmin Tmax R s Состояние
почвы
12 12.08.18 350 (С) 20000 м  {ливн. осадки}  10/10 300 м кучево-дожд. 
[Cb cap]
+13.8 +8.6 71 +13  1006.4  2.6  748  286           
18 12.08.18 290 (З) 10 км    ясно 
+8.2 +6.8 91 +9  1010  1.4  751  293           
21 12.08.18 тихо ()   10 км    10/0 средняя 
[As op]
+8 +6.9 93 +8  1010.7  0.7  751  293           
00 13.08.18 200 (Ю) 20000 м    9/0 средняя 
[Ac As]
+9.4 +7.1 86 +10  1011.3  0.7  752  292           
03 13.08.18 220 (ЮЗ) 20000 м    8/0 средняя, верхняя 
[Ac trans|Ci fib]
+14.6 +9 69 +15  1012.4  1.2  753  286  +5.5         
06 13.08.18 260 (З) 20000 м    8/8 600 м 
[Cu med, cong]
+18.8 +8.5 51 +19  1012.6  0.4  753  282           
09 13.08.18 220 (ЮЗ) 20000 м    8/8 600 м 
[Cu hum]
+20.7 +7.8 43 +21  1013  0.4  753  281           
12 13.08.18 240 (ЮЗ) 20000 м    8/8 600 м 
[Cu hum]
+20.2 +8.7 48 +20  1013.5  0.4  754  281           
18 13.08.18 160 (Ю) 10 км    8/8 600 м 
[Sc]
+14.1 +11.1 82 +18  1014.9  0.6  755  287           
21 13.08.18 160 (Ю) 10 км    8/8 1000 м 
[Sc]
+14.7 +11.2 80 +18  1015.2  0.3  755  287           
00 14.08.18 160 (Ю) 20000 м    9/9 600 м кучево-дожд. 
[Cb calv]
+14.2 +11 81 +17  1015.4  0.3  755  287           
03 14.08.18 180 (Ю) 20000 м    9/4 600 м кучево-дожд., средняя 
[Cb cap|Ac lent]
+18 +12.3 69 +23  1015.8  0.5  755  283  +13.6         
06 14.08.18 190 (Ю) 20000 м    9/9 600 м кучево-дожд. 
[Cb cap]
+20.5 +13.2 63 +26  1016.2  0.5  756  281           
09 14.08.18 180 (Ю) 20000 м    6/0 средняя 
[Ac trans]
+24.8 +15.5 56 +34  1015.6  -0.5  755  276           
12 14.08.18 180 (Ю) 20000 м    ясно 
+25.2 +14.5 51 +33  1014.9  -0.7  755  276           
15 14.08.18 130 (ЮВ) 20000 м    3/0 верхняя 
[Ci fib]
+20.5 +14.2 67 +28  1014.8  -0.2  755  280    +25.8       
18 14.08.18 150 (ЮВ) 10 км    ясно 
+17.7 +13 74 +23  1015.1  0.2  755  283           
21 14.08.18 160 (Ю) 10 км    4/0 верхняя 
[Ci fib]
+15.3 +11.6 79 +19  1014.9  -0.3  755  286           
00 15.08.18 150 (ЮВ) 20000 м    8/0 верхняя 
[Ci sp]
+14.3 +10.4 77 +16  1014.7  -0.2  755  287           
03 15.08.18 150 (ЮВ) 20000 м    ясно 
+18.5 +10.8 61 +21  1014.5  0.1  754  283  +14.2         
06 15.08.18 160 (Ю) 20000 м    ясно 
+23.1 +12 50 +27  1013.3  -1.1  754  278           
09 15.08.18 160 (Ю) 20000 м    8/0 верхняя 
[Ci fib]
+25.2 +10.9 41 +27  1012  -1.2  753  276           
12 15.08.18 150 (ЮВ) 20000 м    9/0 верхняя 
[Ci sp]
+24.7 +11.6 44 +28  1011.2  -0.8  752  276           
15 15.08.18 120 (ЮВ) 20000 м    3/0 верхняя 
[Ci fib]
+20.7 +12.9 61 +26  1010.2  -1  751  279    +25.8       
18 15.08.18 150 (ЮВ) 10 км    ясно 
+18.3 +12.7 70 +24  1009.5  -0.9  751  281           
Время (UTC), дата Ветер
(°,м/с) 
Видим.   Явления Облачность Т
(°С)
Тd
(°С)
f(%) Тe
(°С)
Pmin
(гПа)
dP
(гПа)
Po
(мм)
O2
(г/м3)
Тmin Tmax R s Состояние
почвы

Для получения пояснительной информации подведите курсор к названию столбца.

ПОГОДА в Таре - архив

Всё, что Вы хотите узнать о погоде в Таре - удобно и подробно!

Выберите нужную дату (начиная с 1 января 2015* года) и нажмите кнопку "Найти".
Будут отображены архивные сводки погоды по пункту Тара, начиная с указанной даты.


Отображать данные в формате CSV (для использования в таблицах Excel)


Внимание! Наш архив погоды предназначен исключительно для личного некоммерческого использования в познавательных целях. Если Вам необходимы официальные справки о состоянии погоды (для производственных, юридических, коммерческих и т.п. целей), обращайтесь в органы Росгидромета.

*Примечание: данная дата относится к архиву по метеостанциям СССР (Россия, СНГ, Балтия).
Архив по метеостанциям Зарубежной Европы и Азии (кроме Китая) хранится 10 дней, по другим регионам земного шара (Китай, Африка, Америка, Австралия, Океания) - 1 день.

Тара - район местоположения метеостанции


Название, широта, долгота, высота метеостанции:
Тара 56.9°ш. 74.4°д. 73 м над ур. моря [Российская Федерация]

Дополнительная информация

В oтличие oт бoльшинства пoгoдных сайтoв мы публикуем пoдрoбную метеoинфoрмацию в детальнoм прoфессиoнальнoм фoрмате.

Характеристики температуры и влажнoсти вoздуха измеряются на высoте 2 м в тени вдали oт зданий и деревьев.
Скoрoсть ветра измеряется на высoте 10 м (на урoвне рoста челoвека скoрoсть ветра ниже в 1.5-2 раза). Если метеoстанция нахoдится в гoрoде или в лесу, тo скoрoсть ветра занижена на 2-4 м/с пo сравнению с oткрытым местoм. Скoрoсть ветра над акватoриями крупных рек и oзёр, а также на вершинах хoлмoв на 2-5 м/с выше, чем в oбычных услoвиях.
Атмoсфернoе давление в разных тoчках местнoсти мoжет значительнo oтличаться oт давления на метеoстанции, в зависимoсти oт услoвий рельефа (при пoдъёме на 10 м давление пoнижается примернo на 1 мм рт.ст.).